Year,Month,Day,Hour,Minute,Value (Times are PST for temperature in C)
2010,04,19,08,30,13.50
2010,04,19,08,31,13.50
2010,04,19,08,32,13.50
2010,04,19,08,33,13.50
2010,04,19,08,34,13.50
2010,04,19,08,35,13.50
2010,04,19,08,36,13.60
2010,04,19,08,37,13.60
2010,04,19,08,38,13.60
2010,04,19,08,39,13.60
2010,04,19,08,40,13.60
2010,04,19,08,41,13.60
2010,04,19,08,42,13.60
2010,04,19,08,43,13.60
2010,04,19,08,44,13.60
2010,04,19,08,45,13.60
2010,04,19,08,46,13.70
2010,04,19,08,47,13.70
2010,04,19,08,48,13.70
2010,04,19,08,49,13.70
2010,04,19,08,50,13.70
2010,04,19,08,51,13.70
2010,04,19,08,52,13.70
2010,04,19,08,53,13.70
2010,04,19,08,54,13.70
2010,04,19,08,55,13.70
2010,04,19,08,56,13.70
2010,04,19,08,57,13.70
2010,04,19,08,58,13.70
2010,04,19,08,59,13.70
2010,04,19,09,00,13.70
2010,04,19,09,01,13.70
2010,04,19,09,02,13.70
2010,04,19,09,03,13.70
2010,04,19,09,04,13.70
2010,04,19,09,05,13.70
2010,04,19,09,06,13.70
2010,04,19,09,07,13.70
2010,04,19,09,08,13.70
2010,04,19,09,09,13.70
2010,04,19,09,10,13.70
2010,04,19,09,11,13.70
2010,04,19,09,12,13.70
2010,04,19,09,13,13.70
2010,04,19,09,14,13.70
2010,04,19,09,15,13.70
2010,04,19,09,16,13.70
2010,04,19,09,17,13.70
2010,04,19,09,18,13.70
2010,04,19,09,19,13.70
2010,04,19,09,20,13.70
2010,04,19,09,21,13.70
2010,04,19,09,22,13.70
2010,04,19,09,23,13.70
2010,04,19,09,24,13.70
2010,04,19,09,25,13.80
2010,04,19,09,26,13.80
2010,04,19,09,27,13.80
2010,04,19,09,28,13.80
2010,04,19,09,29,13.80
2010,04,19,09,30,13.80
2010,04,19,09,31,13.90
2010,04,19,09,32,13.90
2010,04,19,09,33,13.90
2010,04,19,09,34,13.90
2010,04,19,09,35,13.90
2010,04,19,09,36,13.90
2010,04,19,09,37,14.00
2010,04,19,09,38,14.00
2010,04,19,09,39,14.00
2010,04,19,09,40,14.00
2010,04,19,09,41,14.00
2010,04,19,09,42,14.00
2010,04,19,09,43,14.00
2010,04,19,09,44,14.00
2010,04,19,09,45,14.00
2010,04,19,09,46,14.00
2010,04,19,09,47,14.00
2010,04,19,09,48,14.00
2010,04,19,09,49,14.10
2010,04,19,09,50,14.10
2010,04,19,09,51,14.10
2010,04,19,09,52,14.10
2010,04,19,09,53,14.20
2010,04,19,09,54,14.20
2010,04,19,09,55,14.20
2010,04,19,09,56,14.20
2010,04,19,09,57,14.20
2010,04,19,09,58,14.20
2010,04,19,09,59,14.20
2010,04,19,10,00,14.20
2010,04,19,10,01,14.20
2010,04,19,10,02,14.30
2010,04,19,10,03,14.30
2010,04,19,10,04,14.30
2010,04,19,10,05,14.40
2010,04,19,10,06,14.40
2010,04,19,10,07,14.40
2010,04,19,10,08,14.50
2010,04,19,10,09,14.50
2010,04,19,10,10,14.50
2010,04,19,10,11,14.50
2010,04,19,10,12,14.60
2010,04,19,10,13,14.60
2010,04,19,10,14,14.70
2010,04,19,10,15,14.70
2010,04,19,10,16,14.80
2010,04,19,10,17,14.80
2010,04,19,10,18,14.90
2010,04,19,10,19,15.00
2010,04,19,10,20,15.00
2010,04,19,10,21,15.10
2010,04,19,10,22,15.10
2010,04,19,10,23,15.30
2010,04,19,10,24,15.30
2010,04,19,10,25,15.40
2010,04,19,10,26,15.40
2010,04,19,10,27,15.40
2010,04,19,10,28,15.40
2010,04,19,10,29,15.40
2010,04,19,10,30,15.50
2010,04,19,10,31,15.50
2010,04,19,10,32,15.60
2010,04,19,10,33,15.60
2010,04,19,10,34,15.70
2010,04,19,10,35,15.70
2010,04,19,10,36,15.80
2010,04,19,10,37,15.80
2010,04,19,10,38,15.80
2010,04,19,10,39,15.80
2010,04,19,10,40,15.80
2010,04,19,10,41,15.80
2010,04,19,10,42,15.90
2010,04,19,10,43,16.00
2010,04,19,10,44,16.10
2010,04,19,10,45,16.10
2010,04,19,10,46,16.10
2010,04,19,10,47,16.20
2010,04,19,10,48,16.20
2010,04,19,10,49,16.20
2010,04,19,10,50,16.30
2010,04,19,10,51,16.30
2010,04,19,10,52,16.30
2010,04,19,10,53,16.40
2010,04,19,10,54,16.40
2010,04,19,10,55,16.40
2010,04,19,10,56,16.40
2010,04,19,10,57,16.40
2010,04,19,10,58,16.40
2010,04,19,10,59,16.60
2010,04,19,11,00,16.60
2010,04,19,11,01,16.70
2010,04,19,11,02,16.70
2010,04,19,11,03,16.70
2010,04,19,11,04,16.70
2010,04,19,11,05,16.70
2010,04,19,11,06,16.70
2010,04,19,11,07,16.70
2010,04,19,11,08,16.70
2010,04,19,11,09,16.70
2010,04,19,11,10,16.80
2010,04,19,11,11,16.80
2010,04,19,11,12,16.80
2010,04,19,11,13,16.80
2010,04,19,11,14,16.80
2010,04,19,11,15,16.80
2010,04,19,11,16,16.80
2010,04,19,11,17,16.80
2010,04,19,11,18,16.80
2010,04,19,11,19,16.80
2010,04,19,11,20,16.90
2010,04,19,11,21,16.90
2010,04,19,11,22,17.00
2010,04,19,11,23,17.00
2010,04,19,11,24,17.00
2010,04,19,11,25,17.10
2010,04,19,11,26,17.10
2010,04,19,11,27,17.10
2010,04,19,11,28,17.00
2010,04,19,11,29,17.00
2010,04,19,11,30,17.00
2010,04,19,11,31,17.00
2010,04,19,11,32,17.00
2010,04,19,11,33,17.00
2010,04,19,11,34,17.00
2010,04,19,11,35,17.10
2010,04,19,11,36,17.10
2010,04,19,11,37,17.20
2010,04,19,11,38,17.20
2010,04,19,11,39,17.30
2010,04,19,11,40,17.30
2010,04,19,11,41,17.30
2010,04,19,11,42,17.30
2010,04,19,11,43,17.40
2010,04,19,11,44,17.40
2010,04,19,11,45,17.40
2010,04,19,11,46,17.50
2010,04,19,11,47,17.50
2010,04,19,11,48,17.70
2010,04,19,11,49,17.80
2010,04,19,11,50,17.90
2010,04,19,11,51,18.00
2010,04,19,11,52,18.10
2010,04,19,11,53,18.10
2010,04,19,11,54,18.20
2010,04,19,11,55,18.20
2010,04,19,11,56,18.20
2010,04,19,11,57,18.30
2010,04,19,11,58,18.40
2010,04,19,11,59,18.50
2010,04,19,12,00,18.60
2010,04,19,12,01,18.60
2010,04,19,12,02,18.60
2010,04,19,12,03,18.50
2010,04,19,12,04,18.40
2010,04,19,12,05,18.40
2010,04,19,12,06,18.30
2010,04,19,12,07,18.30
2010,04,19,12,08,18.40
2010,04,19,12,09,18.40
2010,04,19,12,10,18.40
2010,04,19,12,11,18.30
2010,04,19,12,12,18.10
2010,04,19,12,13,17.90
2010,04,19,12,14,17.70
2010,04,19,12,15,17.50
2010,04,19,12,16,17.40
2010,04,19,12,17,17.30
2010,04,19,12,18,17.10
2010,04,19,12,19,17.00
2010,04,19,12,20,17.00
2010,04,19,12,21,16.90
2010,04,19,12,22,16.90
2010,04,19,12,23,16.80
2010,04,19,12,24,16.70
2010,04,19,12,25,16.70
2010,04,19,12,26,16.50
2010,04,19,12,27,16.30
2010,04,19,12,28,16.20
2010,04,19,12,29,16.10
2010,04,19,12,30,16.10
2010,04,19,12,31,16.00
2010,04,19,12,32,15.90
2010,04,19,12,33,15.90
2010,04,19,12,34,15.80
2010,04,19,12,35,15.80
2010,04,19,12,36,15.80
2010,04,19,12,37,15.80
2010,04,19,12,38,15.90
2010,04,19,12,39,16.00
2010,04,19,12,40,16.10
2010,04,19,12,41,16.10
2010,04,19,12,42,16.20
2010,04,19,12,43,16.20
2010,04,19,12,44,16.30
2010,04,19,12,45,16.30
2010,04,19,12,46,16.40
2010,04,19,12,47,16.40
2010,04,19,12,48,16.40
2010,04,19,12,49,16.50
2010,04,19,12,50,16.60
2010,04,19,12,51,16.70
2010,04,19,12,52,16.70
2010,04,19,12,53,16.70
2010,04,19,12,54,16.70
2010,04,19,12,55,16.60
2010,04,19,12,56,16.50
2010,04,19,12,57,16.40
2010,04,19,12,58,16.40
2010,04,19,12,59,16.40
2010,04,19,13,00,16.40
2010,04,19,13,01,16.40
2010,04,19,13,02,16.40
2010,04,19,13,03,16.40
2010,04,19,13,04,16.50
2010,04,19,13,05,16.60
2010,04,19,13,06,16.70
2010,04,19,13,07,16.70
2010,04,19,13,08,16.70
2010,04,19,13,09,16.70
2010,04,19,13,10,16.80
2010,04,19,13,11,16.80
2010,04,19,13,12,16.90
2010,04,19,13,13,17.00
2010,04,19,13,14,17.00
2010,04,19,13,15,17.00
2010,04,19,13,16,17.10
2010,04,19,13,17,17.10
2010,04,19,13,18,17.20
2010,04,19,13,19,17.30
2010,04,19,13,20,17.30
2010,04,19,13,21,17.30
2010,04,19,13,22,17.30
2010,04,19,13,23,17.40
2010,04,19,13,24,17.50
2010,04,19,13,25,17.60
2010,04,19,13,26,17.60
2010,04,19,13,27,17.50
2010,04,19,13,28,17.50
2010,04,19,13,29,17.60
2010,04,19,13,30,17.70
2010,04,19,13,31,17.80
2010,04,19,13,32,17.90
2010,04,19,13,33,17.80
2010,04,19,13,34,17.80
2010,04,19,13,35,17.90
2010,04,19,13,36,17.80
2010,04,19,13,37,17.90
2010,04,19,13,38,17.90
2010,04,19,13,39,17.90
2010,04,19,13,40,17.90
2010,04,19,13,41,17.90
2010,04,19,13,42,17.90
2010,04,19,13,43,18.10
2010,04,19,13,44,18.10
2010,04,19,13,45,18.20
2010,04,19,13,46,18.20
2010,04,19,13,47,18.30
2010,04,19,13,48,18.30
2010,04,19,13,49,18.40
2010,04,19,13,50,18.50
2010,04,19,13,51,18.60
2010,04,19,13,52,18.60
2010,04,19,13,53,18.60
2010,04,19,13,54,18.60
2010,04,19,13,55,18.50
2010,04,19,13,56,18.50
2010,04,19,13,57,18.60
2010,04,19,13,58,18.60
2010,04,19,13,59,18.60
2010,04,19,14,00,18.70
2010,04,19,14,01,18.80
2010,04,19,14,02,18.90
2010,04,19,14,03,18.90
2010,04,19,14,04,18.90
2010,04,19,14,05,18.90
2010,04,19,14,06,18.90
2010,04,19,14,07,18.90
2010,04,19,14,08,18.90
2010,04,19,14,09,18.90
2010,04,19,14,10,18.90
2010,04,19,14,11,18.90
2010,04,19,14,12,18.90
2010,04,19,14,13,19.00
2010,04,19,14,14,19.10
2010,04,19,14,15,19.10
2010,04,19,14,16,19.10
2010,04,19,14,17,19.20
2010,04,19,14,18,19.30
2010,04,19,14,19,19.40
2010,04,19,14,20,19.50
2010,04,19,14,21,19.60
2010,04,19,14,22,19.60
2010,04,19,14,23,19.60
2010,04,19,14,24,19.60
2010,04,19,14,25,19.70
2010,04,19,14,26,19.70
2010,04,19,14,27,19.70
2010,04,19,14,28,19.80
2010,04,19,14,29,19.80
2010,04,19,14,30,19.70
2010,04,19,14,31,19.60
2010,04,19,14,32,19.60
2010,04,19,14,33,19.60
2010,04,19,14,34,19.60
2010,04,19,14,35,19.70
2010,04,19,14,36,19.70
2010,04,19,14,37,19.70
2010,04,19,14,38,19.80
2010,04,19,14,39,19.80
2010,04,19,14,40,19.90
2010,04,19,14,41,19.90
2010,04,19,14,42,19.90
2010,04,19,14,43,20.10
2010,04,19,14,44,20.10
2010,04,19,14,45,20.10
2010,04,19,14,46,20.20
2010,04,19,14,47,20.20
2010,04,19,14,48,20.20
2010,04,19,14,49,20.20
2010,04,19,14,50,20.30
2010,04,19,14,51,20.30
2010,04,19,14,52,20.30
2010,04,19,14,53,20.40
2010,04,19,14,54,20.30
2010,04,19,14,55,20.40
2010,04,19,14,56,20.40
2010,04,19,14,57,20.30
2010,04,19,14,58,20.30
2010,04,19,14,59,20.30
2010,04,19,15,00,20.20
2010,04,19,15,01,20.20
2010,04,19,15,02,20.20
2010,04,19,15,03,20.20
2010,04,19,15,04,20.20
2010,04,19,15,05,20.30
2010,04,19,15,06,20.20
2010,04,19,15,07,20.30
2010,04,19,15,08,20.30
2010,04,19,15,09,20.40
2010,04,19,15,10,20.40
2010,04,19,15,11,20.40
2010,04,19,15,12,20.30
2010,04,19,15,13,20.20
2010,04,19,15,14,20.20
2010,04,19,15,15,20.20
2010,04,19,15,16,20.20
2010,04,19,15,17,20.20
2010,04,19,15,18,20.20
2010,04,19,15,19,20.10
2010,04,19,15,20,20.10
2010,04,19,15,21,20.00
2010,04,19,15,22,19.90
2010,04,19,15,23,19.90
2010,04,19,15,24,19.90
2010,04,19,15,25,19.90
2010,04,19,15,26,19.90
2010,04,19,15,27,19.90
2010,04,19,15,28,19.70
2010,04,19,15,29,19.70
2010,04,19,15,30,19.70
2010,04,19,15,31,19.70
2010,04,19,15,32,19.70
2010,04,19,15,33,19.70
2010,04,19,15,34,19.80
2010,04,19,15,35,19.70
2010,04,19,15,36,19.60
2010,04,19,15,37,19.60
2010,04,19,15,38,19.60
2010,04,19,15,39,19.60
2010,04,19,15,40,19.50
2010,04,19,15,41,19.40
2010,04,19,15,42,19.30
2010,04,19,15,43,19.20
2010,04,19,15,44,19.10
2010,04,19,15,45,19.00
2010,04,19,15,46,18.90
2010,04,19,15,47,18.80
2010,04,19,15,48,18.60
2010,04,19,15,49,18.50
2010,04,19,15,50,18.40
2010,04,19,15,51,18.30
2010,04,19,15,52,18.10
2010,04,19,15,53,18.00
2010,04,19,15,54,17.90
2010,04,19,15,55,17.80
2010,04,19,15,56,17.70
2010,04,19,15,57,17.70
2010,04,19,15,58,17.60
2010,04,19,15,59,17.50
2010,04,19,16,00,17.50
2010,04,19,16,01,17.40
2010,04,19,16,02,17.30
2010,04,19,16,03,17.30
2010,04,19,16,04,17.20
2010,04,19,16,05,17.10
2010,04,19,16,06,16.90
2010,04,19,16,07,16.80
2010,04,19,16,08,16.70
2010,04,19,16,09,16.60
2010,04,19,16,10,16.50
2010,04,19,16,11,16.40
2010,04,19,16,12,16.40
2010,04,19,16,13,16.40
2010,04,19,16,14,16.30
2010,04,19,16,15,16.30
2010,04,19,16,16,16.20
2010,04,19,16,17,16.10
2010,04,19,16,18,16.10
2010,04,19,16,19,16.10
2010,04,19,16,20,16.10
2010,04,19,16,21,16.20
2010,04,19,16,22,16.20
2010,04,19,16,23,16.30
2010,04,19,16,24,16.40
2010,04,19,16,25,16.50
2010,04,19,16,26,16.60
2010,04,19,16,27,16.70
2010,04,19,16,28,16.70
2010,04,19,16,29,16.80
2010,04,19,16,30,16.80
2010,04,19,16,31,16.80
2010,04,19,16,32,16.90
2010,04,19,16,33,16.80
2010,04,19,16,34,16.70
2010,04,19,16,35,16.70
2010,04,19,16,36,16.60
2010,04,19,16,37,16.40
2010,04,19,16,38,16.20
2010,04,19,16,39,16.00
2010,04,19,16,40,15.80
2010,04,19,16,41,15.70
2010,04,19,16,42,15.60
2010,04,19,16,43,15.50
2010,04,19,16,44,15.40
2010,04,19,16,45,15.30
2010,04,19,16,46,15.30
2010,04,19,16,47,15.30
2010,04,19,16,48,15.20
2010,04,19,16,49,15.30
2010,04,19,16,50,15.30
2010,04,19,16,51,15.30
2010,04,19,16,52,15.30
2010,04,19,16,53,15.40
2010,04,19,16,54,15.40
2010,04,19,16,55,15.50
2010,04,19,16,56,15.50
2010,04,19,16,57,15.50
2010,04,19,16,58,15.60
2010,04,19,16,59,15.60
2010,04,19,17,00,15.70
2010,04,19,17,01,15.70
2010,04,19,17,02,15.80
2010,04,19,17,03,15.80
2010,04,19,17,04,15.80
2010,04,19,17,05,15.80
2010,04,19,17,06,15.80
2010,04,19,17,07,15.90
2010,04,19,17,08,15.90
2010,04,19,17,09,15.90
2010,04,19,17,10,15.90
2010,04,19,17,11,15.90
2010,04,19,17,12,15.80
2010,04,19,17,13,15.80
2010,04,19,17,14,15.80
2010,04,19,17,15,15.80
2010,04,19,17,16,15.80
2010,04,19,17,17,15.70
2010,04,19,17,18,15.70
2010,04,19,17,19,15.60
2010,04,19,17,20,15.60
2010,04,19,17,21,15.60
2010,04,19,17,22,15.50
2010,04,19,17,23,15.50
2010,04,19,17,24,15.60
2010,04,19,17,25,15.60
2010,04,19,17,26,15.60
2010,04,19,17,27,15.60
2010,04,19,17,28,15.70
2010,04,19,17,29,15.70
2010,04,19,17,30,15.80
2010,04,19,17,31,15.80
2010,04,19,17,32,15.80
2010,04,19,17,33,15.80
2010,04,19,17,34,15.90
2010,04,19,17,35,15.90
2010,04,19,17,36,16.10
2010,04,19,17,37,16.10
2010,04,19,17,38,16.10
2010,04,19,17,39,16.10
2010,04,19,17,40,16.10
2010,04,19,17,41,16.10
2010,04,19,17,42,16.20
2010,04,19,17,43,16.20
2010,04,19,17,44,16.20
2010,04,19,17,45,16.20
2010,04,19,17,46,16.30
2010,04,19,17,47,16.30
2010,04,19,17,48,16.30
2010,04,19,17,49,16.40
2010,04,19,17,50,16.40
2010,04,19,17,51,16.50
2010,04,19,17,52,16.60
2010,04,19,17,53,16.70
2010,04,19,17,54,16.70
2010,04,19,17,55,16.80
2010,04,19,17,56,16.80
2010,04,19,17,57,16.90
2010,04,19,17,58,17.00
2010,04,19,17,59,17.00
2010,04,19,18,00,17.10
2010,04,19,18,01,17.20
2010,04,19,18,02,17.30
2010,04,19,18,03,17.30
2010,04,19,18,04,17.40
2010,04,19,18,05,17.40
2010,04,19,18,06,17.50
2010,04,19,18,07,17.50
2010,04,19,18,08,17.60
2010,04,19,18,09,17.60
2010,04,19,18,10,17.60
2010,04,19,18,11,17.70
2010,04,19,18,12,17.70
2010,04,19,18,13,17.70
2010,04,19,18,14,17.70
2010,04,19,18,15,17.70
2010,04,19,18,16,17.70
2010,04,19,18,17,17.70
2010,04,19,18,18,17.60
2010,04,19,18,19,17.60
2010,04,19,18,20,17.60
2010,04,19,18,21,17.60
2010,04,19,18,22,17.50
2010,04,19,18,23,17.50
2010,04,19,18,24,17.50
2010,04,19,18,25,17.50
2010,04,19,18,26,17.50
2010,04,19,18,27,17.50
2010,04,19,18,28,17.50
2010,04,19,18,29,17.50
2010,04,19,18,30,17.40
2010,04,19,18,31,17.40
2010,04,19,18,32,17.40
2010,04,19,18,33,17.40
2010,04,19,18,34,17.40
2010,04,19,18,35,17.40
2010,04,19,18,36,17.40
2010,04,19,18,37,17.40
2010,04,19,18,38,17.40
2010,04,19,18,39,17.30
2010,04,19,18,40,17.30
2010,04,19,18,41,17.30
2010,04,19,18,42,17.30
2010,04,19,18,43,17.30
2010,04,19,18,44,17.30
2010,04,19,18,45,17.30
2010,04,19,18,46,17.30
2010,04,19,18,47,17.30
2010,04,19,18,48,17.30
2010,04,19,18,49,17.30
2010,04,19,18,50,17.30
2010,04,19,18,51,17.30
2010,04,19,18,52,17.30
2010,04,19,18,53,17.30
2010,04,19,18,54,17.30
2010,04,19,18,55,17.30
